Home > Time Zones > World Clock > Weather > Japan > Osaka > Past weeks

Flag for Japan Weather past 2 weeks in Osaka, Japan

Now
39 °F

Passing clouds.


Feels Like: 32 °F
Forecast: 26 / 46 °F
Wind: 10 mph from Northwest

Location: Kansai International Airport

Current Time: Dec 19, 2014 at 4:42:02 AM

Latest Report: Dec 19, 2014 at 4:00 AM


Visibility: N/A

Pressure: 30.45 "Hg

Humidity: 56%

Dew point: 25 °F

Location of OsakaLocation

Historic Weather in Osaka — Graph

°F

Osaka temperature yesterday

Maximum temperature yesterday: 43 °F (at 3:00 PM)
Minimum temperature yesterday: 36 °F (at 12:00 AM)
Average temperature yesterday: 38 °F

Past Weeks' High & Low Weather Summary

 TemperatureHumidityPressure
High55 °F (Dec 9, 3:00 PM)94% (Dec 11, 9:00 AM)30.45 "Hg (Dec 11, 9:00 AM)
Low36 °F (Dec 17, 7:30 AM)31% (Dec 13, 5:00 PM)29.65 "Hg (Dec 16, 12:30 PM)
Average45 °F55%30.10 "Hg
* Reported Dec 4 3:00 AM — Dec 19 3:30 AM, Osaka, Weather by CustomWeather, © 2014

Note: Actual official high and low records may vary slightly from our data, if they occured in-between our weather recording intervals... More about our weather records

Advertising

Osaka weather history for previous 24 hours

 ConditionsComfort  
Time TempWeatherWind HumidityBarometerVisibility
3:30 AM
Dec 19
39 °FPassing clouds.13 mph56%30.45 "HgN/A
3:00 AM39 °FPassing clouds.10 mph56%30.45 "HgN/A
2:30 AM37 °FPassing clouds.13 mph60%30.45 "HgN/A
2:00 AM37 °FPassing clouds.12 mph60%30.45 "HgN/A
1:30 AM37 °FPassing clouds.10 mph56%30.45 "HgN/A
1:00 AM37 °FPassing clouds.12 mph56%30.45 "HgN/A
12:30 AM37 °FPassing clouds.10 mph60%30.42 "HgN/A
12:00 AM37 °FPassing clouds.9 mph56%30.45 "HgN/A
11:30 PM
Dec 18
37 °FPassing clouds.9 mph60%30.45 "HgN/A
11:00 PM37 °FPassing clouds.9 mph56%30.45 "HgN/A
10:30 PM37 °FPassing clouds.12 mph56%30.42 "HgN/A
10:00 PM37 °FPassing clouds.12 mph56%30.42 "HgN/A
9:30 PM39 °FPassing clouds.10 mph52%30.42 "HgN/A
9:00 PM39 °FPassing clouds.12 mph52%30.42 "HgN/A
8:30 PM39 °FPassing clouds.12 mph52%30.39 "HgN/A
8:00 PM39 °FPassing clouds.10 mph52%30.39 "HgN/A
7:30 PM39 °FPassing clouds.10 mph52%30.36 "HgN/A
7:00 PM39 °FPassing clouds.12 mph56%30.36 "HgN/A
6:30 PM39 °FPassing clouds.13 mph52%30.36 "HgN/A
6:00 PM39 °FPassing clouds.12 mph52%30.33 "HgN/A
5:30 PM41 °FPassing clouds.13 mph53%30.33 "HgN/A
5:00 PM41 °FPassing clouds.13 mph49%30.30 "HgN/A
4:30 PM41 °FPassing clouds.15 mph49%30.30 "HgN/A
4:00 PM41 °FScattered clouds.17 mph49%30.27 "HgN/A
3:30 PM41 °FScattered clouds.17 mph49%30.24 "HgN/A
3:00 PM43 °FScattered clouds.21 mph42%30.24 "HgN/A
2:30 PM41 °FSnow flurries. Partly sunny.16 mph61%30.21 "HgN/A
2:00 PM39 °FSnow flurries. Partly sunny.12 mph61%30.21 "HgN/A
1:30 PM39 °FSnow flurries. Scattered clouds.17 mph56%30.21 "HgN/A
12:30 PM41 °FSnow flurries. Scattered clouds.18 mph49%30.21 "HgN/A
11:30 AM41 °FScattered clouds.20 mph53%30.21 "HgN/A
11:00 AM39 °FPartly sunny.21 mph48%30.21 "HgN/A
10:30 AM41 °FScattered showers. Partly sunny.23 mph49%30.21 "HgN/A
10:00 AM39 °FSnow flurries. Partly sunny.23 mph52%30.21 "HgN/A
9:30 AM39 °FSnow flurries. Partly sunny.22 mph48%30.18 "HgN/A
9:00 AM37 °FSnow flurries. Partly sunny.21 mph52%30.18 "HgN/A
8:30 AM37 °FPartly sunny.23 mph52%30.18 "HgN/A
8:00 AM37 °FPartly sunny.22 mph52%30.15 "HgN/A
7:30 AM37 °FPartly sunny.22 mph52%30.15 "HgN/A
7:00 AM36 °FPartly sunny.21 mph56%30.12 "HgN/A
6:30 AM36 °FPassing clouds.21 mph52%30.09 "HgN/A
6:00 AM36 °FPassing clouds.26 mph52%30.09 "HgN/A
5:30 AM36 °FPassing clouds.29 mph56%30.07 "HgN/A
5:00 AM36 °FPassing clouds.25 mph52%30.04 "HgN/A
4:46 AM36 °FPassing clouds.28 mph48%30.04 "HgN/A
4:30 AM36 °FPassing clouds.26 mph52%30.04 "HgN/A
4:00 AM36 °FPassing clouds.29 mph48%30.04 "HgN/A
Weather by CustomWeather, © 2014

See weather overviewHow to use our weather pages